Stations météo

réclame
Mon MeteoGroup
Gotska sandoen, Suède (2589): Température de l'air & dewpoint: 16.02.2018 21:00:00 - 22.02.2018 21:00:00 (CET)Gotska sandoen, Suède (2589): Vitesse du vent & gusts: 16.02.2018 21:00:00 - 22.02.2018 21:00:00 (CET)Gotska sandoen, Suède (2589): Direction du vent: 16.02.2018 21:00:00 - 22.02.2018 21:00:00 (CET)Gotska sandoen, Suède (2589): reduced air pressure: 16.02.2018 21:00:00 - 22.02.2018 21:00:00 (CET)Gotska sandoen, Suède (2589): visibility: 16.02.2018 21:00:00 - 22.02.2018 21:00:00 (CET)Gotska sandoen, Suède (2589): Quantités de précipitations: 16.02.2018 21:00:00 - 22.02.2018 21:00:00 (CET)
Date & Time tt [°C] td [°C] ff [km/h] ff [knt] fx [km/h] fx [knt] dd ppp [hPa] vv [km] rr [mm]
22.02.2018 21:00:00 -2,6 -4,8 16 9 32 17 W 1027,6 18 0,0
22.02.2018 20:00:00 -2,4 -3,2 16 8 38 20 WSW 1028,0 2,6 0,2
22.02.2018 19:00:00 -2,4 -2,8 22 12 36 20 SW 1028,1 2,6 0,6
22.02.2018 18:00:00 -3,0 -3,5 19 10 36 19 SSW 1028,3 0,5 0,1
22.02.2018 17:00:00 -3,0 -4,9 18 10 35 19 SSW 1028,6 6 0,0
22.02.2018 16:00:00 -2,3 -6,7 15 8 31 17 SSW 1028,8 25 0,0
22.02.2018 15:00:00 -2,0 -6,7 12 7 32 17 SSW 1029,1 34 0,0
22.02.2018 14:00:00 -1,9 -7,4 14 7 26 14 SSW 1029,6 44 0,0
22.02.2018 13:00:00 -1,9 -7,4 13 7 26 14 SSW 1030,1 46 0,0
22.02.2018 12:00:00 -1,9 -6,8 10 6 28 15 S 1030,2 20 0,0
22.02.2018 11:00:00 -2,3 -7,4 11 6 24 13 S 1030,3 28 0,8
22.02.2018 10:00:00 -2,8 -6,4 10 5 18 10 S 1030,5 50 0,0
22.02.2018 09:00:00 -3,7 -7,1 10 5 19 10 SSE 1030,6 42 0,0
22.02.2018 08:00:00 -5,8 -8,2 11 6 17 9 SSE 1030,3 50 0,0
22.02.2018 07:00:00 -6,5 -8,9 11 6 16 8 SSE 1030,2 50 0,0
22.02.2018 06:00:00 -7,1 -8,9 10 6 16 9 SE 1030,1 50 0,0
22.02.2018 05:00:00 -7,4 -8,9 10 5 12 7 SE 1030,0 50 0,0
22.02.2018 04:00:00 -7,1 -8,5 10 6 15 8 SE 1030,1 50 0,0
22.02.2018 03:00:00 -7,3 -8,7 10 6 15 8 SE 1029,9 50 0,0
22.02.2018 02:00:00 -5,6 -7,3 9 5 14 8 ESE 1030,0 50 0,0
22.02.2018 01:00:00 -4,7 -6,2 7 4 16 9 SSE 1029,8 50 0,1
22.02.2018 00:00:00 -5,1 -6,6 8 5 19 10 SE 1029,8 50 0,0
21.02.2018 23:00:00 -5,3 -6,8 8 5 14 7 SE 1029,5 47 0,0
21.02.2018 22:00:00 -5,1 -6,5 10 5 18 10 SE 1029,2 11 0,0
21.02.2018 21:00:00 -5,1 -6,5 10 5 16 9 SE 1028,8 37 0,0
21.02.2018 20:00:00 -4,6 -5,7 10 5 20 11 ESE 1028,3 23 0,1
21.02.2018 19:00:00 -4,2 -4,9 10 6 22 12 ESE 1027,9 1,1 1,1
21.02.2018 18:00:00 -4,0 -4,7 7 4 16 9 ESE 1027,4 2,5 0,0
21.02.2018 17:00:00 -3,8 -4,5 10 5 23 12 E 1026,9 0,7 0,8
21.02.2018 16:00:00 -3,5 -4,8 10 6 23 12 ESE 1026,5 18 0,1
21.02.2018 15:00:00 -2,9 -4,2 11 6 26 14 E 1026,4 1,4 0,1
21.02.2018 14:00:00 -2,2 -4,1 16 8 29 16 E 1026,4 3,7 0,5
21.02.2018 13:00:00 -1,6 -5,4 8 4 16 9 E 1026,4 33 0,0
21.02.2018 12:00:00 -1,5 -6,4 6 3 16 8 NNE 1026,4 49 0,0
21.02.2018 11:00:00 -1,5 -7,0 4 2 13 7 N 1026,2 50 0,0
21.02.2018 10:00:00 -2,1 -6,5 6 3 15 8 N 1026,2 50 0,0
21.02.2018 09:00:00 -2,8 -5,9 5 3 14 8 NNE 1026,0 41 0,0
21.02.2018 08:00:00 -3,3 -6,9 6 3 15 8 NNE 1025,7 47 0,0
21.02.2018 07:00:00 -3,9 -6,4 4 2 14 8 NE 1025,7 30 0,0
21.02.2018 06:00:00 -3,7 -6,0 6 4 14 8 NE 1025,9 6 0,0
21.02.2018 05:00:00 -3,6 -6,9 7 4 16 8 N 1026,2 10 0,0
21.02.2018 04:00:00 -3,8 -7,2 8 4 16 9 NNE 1026,2 20 0,0
21.02.2018 03:00:00 -4,4 -7,8 8 4 20 11 NNE 1026,5 50 0,0
21.02.2018 02:00:00 -4,2 -7,5 6 4 18 10 NNE 1026,7 4,4 0,0
21.02.2018 01:00:00 -4,5 -6,9 7 4 19 10 NE 1027,0 10 0,0
21.02.2018 00:00:00 -4,0 -7,3 9 5 23 13 NNE 1027,2 7 0,0
20.02.2018 23:00:00 -4,1 -7,5 10 5 24 13 NNE 1027,0 50 0,0
20.02.2018 22:00:00 -3,9 -7,5 11 6 22 12 NNE 1027,1 50 0,0
20.02.2018 21:00:00 -3,7 -7,5 11 6 25 13 NNE 1027,2 41 0,0
20.02.2018 20:00:00 -3,6 -6,7 9 5 26 14 NNE 1027,2 27 0,0
20.02.2018 19:00:00 -3,4 -6,4 11 6 22 12 NNE 1027,2 15 0,0
20.02.2018 18:00:00 -3,2 -5,7 11 6 24 13 NE 1027,1 7 0,0
20.02.2018 17:00:00 -3,3 -4,9 12 6 23 12 NE 1026,9 2,5 0,0
20.02.2018 16:00:00 -3,2 -4,9 14 7 24 13 NE 1027,1 1,4 0,0
20.02.2018 15:00:00 -2,3 -4,8 11 6 19 10 NE 1027,1 3,3 0,0
20.02.2018 14:00:00 -1,6 -5,6 6 4 16 9 NNE 1027,3 50 0,2
20.02.2018 13:00:00 -2,3 -5,3 8 5 20 11 NE 1027,7 6 0,1
20.02.2018 12:00:00 -2,1 -4,3 10 6 24 13 ENE 1027,7 2,1 0,1
20.02.2018 11:00:00 -2,5 -4,1 10 5 20 11 ENE 1027,6 1,4 0,2
20.02.2018 10:00:00 -2,3 -4,2 12 6 23 12 NE 1027,5 1,2 0,1
20.02.2018 09:00:00 -2,2 -5,5 12 6 26 14 NE 1027,4 9 0,0
20.02.2018 08:00:00 -2,2 -5,0 10 6 25 13 NE 1027,0 12 0,0
20.02.2018 07:00:00 -2,1 -4,8 9 5 22 12 NNE 1027,0 16 0,0
20.02.2018 06:00:00 -2,0 -5,0 8 5 21 11 NNE 1027,0 14 0,0
20.02.2018 05:00:00 -2,0 -5,0 8 5 22 12 N 1027,0 26 0,0
20.02.2018 04:00:00 -2,0 -5,3 10 5 21 11 NE 1027,1 25 0,0
20.02.2018 03:00:00 -1,9 -5,2 11 6 26 14 NNE 1027,0 30 0,0
20.02.2018 02:00:00 -1,9 -4,7 8 4 26 14 NNE 1027,1 25 0,0
20.02.2018 01:00:00 -2,2 -5,5 9 5 27 15 NNE 1027,2 33 0,0
20.02.2018 00:00:00 -2,1 -4,9 11 6 27 15 NNE 1027,2 30 0,0
19.02.2018 23:00:00 -2,0 -4,7 12 7 26 14 NE 1026,9 19 0,0
19.02.2018 22:00:00 -2,1 -4,8 13 7 29 16 NE 1026,8 17 0,0
19.02.2018 21:00:00 -2,2 -5,0 14 8 34 18 NE 1026,9 18 0,0
19.02.2018 20:00:00 -2,2 -4,7 16 9 32 17 ENE 1026,7 13 0,0
19.02.2018 19:00:00 -2,2 -4,9 17 9 36 20 NE 1026,5 19 0,0
19.02.2018 18:00:00 -1,8 -4,3 17 9 34 18 NE 1026,2 21 0,0
19.02.2018 17:00:00 -1,5 -3,7 19 10 34 18 ENE 1025,8 12 0,0
19.02.2018 16:00:00 -1,3 -3,2 18 10 36 19 ENE 1025,4 3,3 0,0
19.02.2018 15:00:00 -0,9 -2,5 17 9 32 17 ENE 1025,1 7 0,0
19.02.2018 14:00:00 -0,9 -2,6 14 7 28 15 E 1024,8 2,5 0,0
19.02.2018 13:00:00 -0,6 -2,8 16 8 30 16 E 1024,5 9 0,0
19.02.2018 12:00:00 -0,5 -2,1 17 9 35 19 E 1024,3 8 0,2
19.02.2018 11:00:00 -0,5 -1,6 18 10 38 20 E 1023,9 4,0 0,1
19.02.2018 10:00:00 -0,7 -1,3 21 12 41 22 E 1023,4 6 0,3
19.02.2018 09:00:00 -0,4 -0,7 20 11 35 19 E 1022,9 1,7 0,1
19.02.2018 08:00:00 0,2 -0,5 15 8 32 17 E 1022,4 9 0,2
19.02.2018 07:00:00 0,6 -0,3 11 6 22 12 E 1021,8 8 0,1
19.02.2018 06:00:00 0,6 -0,1 8 5 19 10 ESE 1021,7 33 0,0
19.02.2018 05:00:00 -0,4 -0,8 7 4 13 7 NE 1021,6 19 0,0
19.02.2018 04:00:00 -0,7 -1,3 5 3 8 5 NE 1021,7 15 0,0
19.02.2018 03:00:00 -0,9 -1,5 4 2 6 3 NE 1021,9 14 0,0
19.02.2018 02:00:00 -0,2 -1,0 3 1 7 4 N 1022,1 15 0,0
19.02.2018 01:00:00 0,4 -0,5 3 2 15 8 N 1022,3 16 0,0
19.02.2018 00:00:00 1,0 -0,2 5 3 17 9 N 1022,4 18 0,0
18.02.2018 23:00:00 1,4 -0,1 11 6 23 12 WNW 1022,4 20 0,0
18.02.2018 22:00:00 1,5 0,0 14 7 25 13 W 1022,5 22 0,0
18.02.2018 21:00:00 1,1 -0,1 10 5 23 12 W 1022,5 27 0,0
18.02.2018 20:00:00 0,9 -1,0 13 7 20 11 WSW 1022,9 48 0,0
18.02.2018 19:00:00 0,5 -1,3 10 5 19 10 WSW 1023,1 32 0,0
18.02.2018 18:00:00 0,3 -1,0 8 5 17 9 W 1023,4 21 0,0
18.02.2018 17:00:00 0,1 -1,3 7 4 19 11 W 1023,6 9 0,0
18.02.2018 16:00:00 0,6 -1,3 12 6 24 13 W 1023,7 19 0,0
18.02.2018 15:00:00 0,8 -1,3 13 7 28 15 W 1023,7 23 0,0
18.02.2018 14:00:00 0,9 -1,5 13 7 29 16 W 1023,8 33 0,0
18.02.2018 13:00:00 1,2 -1,5 13 7 29 16 WNW 1024,0 29 0,0
18.02.2018 12:00:00 1,3 -1,6 15 8 26 14 WNW 1024,1 24 0,0
18.02.2018 11:00:00 1,4 -1,2 14 8 25 13 W 1024,0 18 0,0
18.02.2018 10:00:00 1,1 -1,1 13 7 27 15 W 1023,8 15 0,0
18.02.2018 09:00:00 0,7 -1,5 14 8 31 17 W 1023,8 16 0,2
18.02.2018 08:00:00 0,7 -1,4 16 9 33 18 W 1023,8 15 0,0
18.02.2018 07:00:00 0,5 -1,6 13 7 25 13 W 1023,8 16 0,0
18.02.2018 06:00:00 0,5 -1,9 12 6 29 15 W 1023,9 16 0,0
18.02.2018 05:00:00 0,4 -2,3 16 8 29 16 WNW 1023,9 21 0,0
18.02.2018 04:00:00 0,2 -3,2 9 5 21 11 W 1024,0 37 0,0
18.02.2018 03:00:00 -0,2 -3,4 9 5 19 10 WNW 1024,2 37 0,0
18.02.2018 02:00:00 -0,4 -2,9 9 5 18 10 WNW 1024,3 20 0,0
18.02.2018 01:00:00 -1,5 -3,7 4 2 8 4 W 1024,3 32 0,0
18.02.2018 00:00:00 -1,2 -4,2 4 2 8 5 W 1024,4 40 0,0
17.02.2018 23:00:00 -1,0 -4,2 5 3 11 6 NW 1024,3 41 0,0
17.02.2018 22:00:00 -1,1 -3,9 6 3 13 7 NNW 1024,1 38 0,0
17.02.2018 21:00:00 -0,9 -3,9 5 3 18 10 N 1024,0 36 0,0
17.02.2018 20:00:00 -0,8 -3,7 8 4 17 9 NNE 1023,9 30 0,0
17.02.2018 19:00:00 -1,0 -3,8 10 5 21 12 NNE 1023,5 23 0,0
17.02.2018 18:00:00 -0,9 -3,6 9 5 26 14 NNE 1023,3 20 0,0
17.02.2018 17:00:00 -0,9 -3,7 10 6 24 13 N 1023,2 26 0,0
17.02.2018 16:00:00 -0,5 -3,9 11 6 25 14 NNE 1023,0 27 0,0
17.02.2018 15:00:00 0,1 -3,6 11 6 26 14 NNE 1022,7 30 0,0
17.02.2018 14:00:00 0,1 -3,3 13 7 27 14 NNE 1022,4 22 0,0
17.02.2018 13:00:00 0,7 -2,4 13 7 26 14 NNE 1022,1 22 0,0
17.02.2018 12:00:00 0,6 -2,3 13 7 30 16 NNE 1021,8 21 0,0
17.02.2018 11:00:00 0,3 -2,6 11 6 26 14 NNE 1021,7 20 0,0
17.02.2018 10:00:00 0,0 -3,0 13 7 30 16 NNE 1021,6 23 0,0
17.02.2018 09:00:00 0,1 -2,3 14 8 28 15 NNE 1021,3 15 0,0
17.02.2018 08:00:00 -0,2 -2,3 13 7 27 15 NNE 1021,0 15 0,0
17.02.2018 07:00:00 -0,1 -1,8 14 7 29 16 NE 1020,6 14 0,0
17.02.2018 06:00:00 -0,7 -1,8 6 4 17 9 NNE 1020,1 9 0,1
17.02.2018 05:00:00 -0,5 -1,8 12 7 26 14 NE 1020,2 14 0,0
17.02.2018 04:00:00 -0,4 -1,4 11 6 22 12 NE 1019,9 10 0,0
17.02.2018 03:00:00 -0,4 -1,2 13 7 23 12 ENE 1019,5 11 0,0
17.02.2018 02:00:00 -0,5 -1,2 10 6 22 12 ENE 1019,3 9 0,0
17.02.2018 01:00:00 -0,7 -1,1 10 6 19 10 E 1018,9 6 0,0
17.02.2018 00:00:00 -0,6 -1,2 9 5 17 9 ESE 1018,7 5 0,0
16.02.2018 23:00:00 -0,5 -0,9 8 4 14 8 ESE 1018,4 4,6 0,2
16.02.2018 22:00:00 -0,4 -0,7 7 4 15 8 ESE 1018,1 2,2 0,3
16.02.2018 21:00:00 -0,3 -0,6 5 3 14 7 SE 1017,8 2,6 0,1

tt = Température de l'air
td = dewpoint
ff = Vitesse du vent
fx = gusts
dd = Direction du vent
ppp = reduced air pressure
vv = visibility
rr = Quantités de précipitations

stations d'obs. à proximité